sat.trackr.live / text

‹ back to catalog

STARLINK-5483

NORAD 55643 · 2023-021R

PAYLOAD ACTIVE UNKNOWN

§ Identity

Operator
Country
US
Launch date
2023-02-17
Launch site
AFWTR
Launch vehicle
Mass (kg)
RCS (m²)

Purposes: comms

External: N2YO · Heavens-Above · Gunter

§ Orbital elements

Epoch: 2026-09-20T21:00:04.891968Z

Period
96.11 min
Inclination
69.9994°
Eccentricity
0.0002887
Mean motion
14.98317304 rev/d
Perigee alt
570.1 km
Apogee alt
574.1 km
Semi-major
6,950.2 km
B*
2.3359e-4
RAAN
52.5044°
Arg perigee
273.7659°
Mean anomaly
86.3170°
Rev number
19,802

§ Raw data

STARLINK-54831 55643U 23021R   26263.87505662  .00002694  00000+0  23359-3 0  99942 55643  69.9994  52.5044 0002887 273.7659  86.3170 14.98317304198020

JSON: /api/v1/satellites/55643 · /tle

For live sub-satellite position, see the globe view (requires WebGL).

§ Visibility from observer

Set your observer location to see the next 7 days of passes ≥ 10°. The values pass through the URL so the page stays shareable.

No JS? Fill the form by hand. The geolocation button needs JavaScript.